owner,sensor,date,latitude,longitude,vertical_datum,sea_water_practical_salinity,qcFlag 
ENP,ioos.station.NOAA.NDBC:GBIF1:1,2016-02-01T16:00:00Z,25.3780,-81.0290,1.5,5.63,1111122 
ENP,ioos.station.NOAA.NDBC:GBIF1:1,2016-02-01T17:00:00Z,25.3780,-81.0290,1.5,3.72,1111122 
ENP,ioos.station.NOAA.NDBC:GBIF1:1,2016-02-01T18:00:00Z,25.3780,-81.0290,1.5,2.37,1111122 
ENP,ioos.station.NOAA.NDBC:GBIF1:1,2016-02-01T19:00:00Z,25.3780,-81.0290,1.5,1.81,1111122 
ENP,ioos.station.NOAA.NDBC:GBIF1:1,2016-02-01T20:00:00Z,25.3780,-81.0290,1.5,1.82,1111122 
ENP,ioos.station.NOAA.NDBC:GBIF1:1,2016-02-01T21:00:00Z,25.3780,-81.0290,1.5,1.8,1111122 
ENP,ioos.station.NOAA.NDBC:GBIF1:1,2016-02-01T22:00:00Z,25.3780,-81.0290,1.5,1.24,1111122 
ENP,ioos.station.NOAA.NDBC:GBIF1:1,2016-02-01T23:00:00Z,25.3780,-81.0290,1.5,1.18,1111122 
ENP,ioos.station.NOAA.NDBC:GBIF1:1,2016-02-02T00:00:00Z,25.3780,-81.0290,1.5,1.68,1111122 
ENP,ioos.station.NOAA.NDBC:GBIF1:1,2016-02-02T01:00:00Z,25.3780,-81.0290,1.5,4.26,1111122 
ENP,ioos.station.NOAA.NDBC:GBIF1:1,2016-02-02T02:00:00Z,25.3780,-81.0290,1.5,7.65,1111122 
ENP,ioos.station.NOAA.NDBC:GBIF1:1,2016-02-02T03:00:00Z,25.3780,-81.0290,1.5,9.53,1111122 
ENP,ioos.station.NOAA.NDBC:GBIF1:1,2016-02-02T04:00:00Z,25.3780,-81.0290,1.5,8.32,1111122 
ENP,ioos.station.NOAA.NDBC:GBIF1:1,2016-02-02T05:00:00Z,25.3780,-81.0290,1.5,5.55,1111122 
ENP,ioos.station.NOAA.NDBC:GBIF1:1,2016-02-02T06:00:00Z,25.3780,-81.0290,1.5,3.65,1111122 
ENP,ioos.station.NOAA.NDBC:GBIF1:1,2016-02-02T07:00:00Z,25.3780,-81.0290,1.5,2.3,1111122 
ENP,ioos.station.NOAA.NDBC:GBIF1:1,2016-02-02T08:00:00Z,25.3780,-81.0290,1.5,1.95,1111122 
ENP,ioos.station.NOAA.NDBC:GBIF1:1,2016-02-02T09:00:00Z,25.3780,-81.0290,1.5,1.96,1111122 
ENP,ioos.station.NOAA.NDBC:GBIF1:1,2016-02-02T10:00:00Z,25.3780,-81.0290,1.5,2.2,1111122 
ENP,ioos.station.NOAA.NDBC:GBIF1:1,2016-02-02T11:00:00Z,25.3780,-81.0290,1.5,1.68,1111122 
ENP,ioos.station.NOAA.NDBC:GBIF1:1,2016-02-02T12:00:00Z,25.3780,-81.0290,1.5,1.2,1111122 
ENP,ioos.station.NOAA.NDBC:GBIF1:1,2016-02-02T13:00:00Z,25.3780,-81.0290,1.5,1.02,1111122 
ENP,ioos.station.NOAA.NDBC:GBIF1:1,2016-02-02T14:00:00Z,25.3780,-81.0290,1.5,1.07,1111122 
ENP,ioos.station.NOAA.NDBC:GBIF1:1,2016-02-02T15:00:00Z,25.3780,-81.0290,1.5,1.41,1111122 
ENP,ioos.station.NOAA.NDBC:GBIF1:1,2016-02-02T16:00:00Z,25.3780,-81.0290,1.5,2.39,1111122 
ENP,ioos.station.NOAA.NDBC:GBIF1:1,2016-02-02T18:00:00Z,25.3780,-81.0290,1.5,2.28,1111122 
ENP,ioos.station.NOAA.NDBC:GBIF1:1,2016-02-02T19:00:00Z,25.3780,-81.0290,1.5,1.87,1111122 
ENP,ioos.station.NOAA.NDBC:GBIF1:1,2016-02-02T20:00:00Z,25.3780,-81.0290,1.5,1.54,1111122 
ENP,ioos.station.NOAA.NDBC:GBIF1:1,2016-02-02T21:00:00Z,25.3780,-81.0290,1.5,1.43,1111122 
ENP,ioos.station.NOAA.NDBC:GBIF1:1,2016-02-02T22:00:00Z,25.3780,-81.0290,1.5,1.38,1111122 
ENP,ioos.station.NOAA.NDBC:GBIF1:1,2016-02-02T23:00:00Z,25.3780,-81.0290,1.5,1.0,1111122 
ENP,ioos.station.NOAA.NDBC:GBIF1:1,2016-02-03T00:00:00Z,25.3780,-81.0290,1.5,0.98,1111122 
ENP,ioos.station.NOAA.NDBC:GBIF1:1,2016-02-03T01:00:00Z,25.3780,-81.0290,1.5,1.35,1111122 
ENP,ioos.station.NOAA.NDBC:GBIF1:1,2016-02-03T02:00:00Z,25.3780,-81.0290,1.5,3.89,1111122 
ENP,ioos.station.NOAA.NDBC:GBIF1:1,2016-02-03T03:00:00Z,25.3780,-81.0290,1.5,6.87,1111122 
ENP,ioos.station.NOAA.NDBC:GBIF1:1,2016-02-03T04:00:00Z,25.3780,-81.0290,1.5,9.27,1111122 
ENP,ioos.station.NOAA.NDBC:GBIF1:1,2016-02-03T05:00:00Z,25.3780,-81.0290,1.5,10.23,1111122 
ENP,ioos.station.NOAA.NDBC:GBIF1:1,2016-02-03T06:00:00Z,25.3780,-81.0290,1.5,8.58,1111122 
ENP,ioos.station.NOAA.NDBC:GBIF1:1,2016-02-03T07:00:00Z,25.3780,-81.0290,1.5,6.46,1111122 
ENP,ioos.station.NOAA.NDBC:GBIF1:1,2016-02-03T08:00:00Z,25.3780,-81.0290,1.5,4.48,1111122 
ENP,ioos.station.NOAA.NDBC:GBIF1:1,2016-02-03T09:00:00Z,25.3780,-81.0290,1.5,2.74,1111122 
ENP,ioos.station.NOAA.NDBC:GBIF1:1,2016-02-03T10:00:00Z,25.3780,-81.0290,1.5,2.02,1111122 
ENP,ioos.station.NOAA.NDBC:GBIF1:1,2016-02-03T11:00:00Z,25.3780,-81.0290,1.5,1.97,1111122 
ENP,ioos.station.NOAA.NDBC:GBIF1:1,2016-02-03T12:00:00Z,25.3780,-81.0290,1.5,1.93,1111122 
ENP,ioos.station.NOAA.NDBC:GBIF1:1,2016-02-03T13:00:00Z,25.3780,-81.0290,1.5,1.39,1111122 
ENP,ioos.station.NOAA.NDBC:GBIF1:1,2016-02-03T14:00:00Z,25.3780,-81.0290,1.5,1.12,1111122 
ENP,ioos.station.NOAA.NDBC:GBIF1:1,2016-02-03T15:00:00Z,25.3780,-81.0290,1.5,1.22,1111122 
ENP,ioos.station.NOAA.NDBC:GBIF1:1,2016-02-03T16:00:00Z,25.3780,-81.0290,1.5,1.75,1111122 
ENP,ioos.station.NOAA.NDBC:GBIF1:1,2016-02-03T17:00:00Z,25.3780,-81.0290,1.5,4.67,1111122 
ENP,ioos.station.NOAA.NDBC:GBIF1:1,2016-02-03T18:00:00Z,25.3780,-81.0290,1.5,7.12,1111122 
ENP,ioos.station.NOAA.NDBC:GBIF1:1,2016-02-03T19:00:00Z,25.3780,-81.0290,1.5,7.05,1111122 
ENP,ioos.station.NOAA.NDBC:GBIF1:1,2016-02-03T20:00:00Z,25.3780,-81.0290,1.5,4.41,1111122 
ENP,ioos.station.NOAA.NDBC:GBIF1:1,2016-02-03T21:00:00Z,25.3780,-81.0290,1.5,2.84,1111122 
ENP,ioos.station.NOAA.NDBC:GBIF1:1,2016-02-03T22:00:00Z,25.3780,-81.0290,1.5,2.12,1111122 
ENP,ioos.station.NOAA.NDBC:GBIF1:1,2016-02-03T23:00:00Z,25.3780,-81.0290,1.5,1.81,1111122 
ENP,ioos.station.NOAA.NDBC:GBIF1:1,2016-02-04T00:00:00Z,25.3780,-81.0290,1.5,1.34,1111122 
ENP,ioos.station.NOAA.NDBC:GBIF1:1,2016-02-04T01:00:00Z,25.3780,-81.0290,1.5,1.24,1111122 
ENP,ioos.station.NOAA.NDBC:GBIF1:1,2016-02-04T02:00:00Z,25.3780,-81.0290,1.5,2.55,1111122 
ENP,ioos.station.NOAA.NDBC:GBIF1:1,2016-02-04T03:00:00Z,25.3780,-81.0290,1.5,5.8,1111122 
ENP,ioos.station.NOAA.NDBC:GBIF1:1,2016-02-04T04:00:00Z,25.3780,-81.0290,1.5,9.27,1111122 
ENP,ioos.station.NOAA.NDBC:GBIF1:1,2016-02-04T05:00:00Z,25.3780,-81.0290,1.5,12.3,1111122 
ENP,ioos.station.NOAA.NDBC:GBIF1:1,2016-02-04T06:00:00Z,25.3780,-81.0290,1.5,13.87,1111122 
ENP,ioos.station.NOAA.NDBC:GBIF1:1,2016-02-04T07:00:00Z,25.3780,-81.0290,1.5,14.13,1111122 
ENP,ioos.station.NOAA.NDBC:GBIF1:1,2016-02-04T08:00:00Z,25.3780,-81.0290,1.5,9.15,1111122 
ENP,ioos.station.NOAA.NDBC:GBIF1:1,2016-02-04T09:00:00Z,25.3780,-81.0290,1.5,6.99,1111122 
ENP,ioos.station.NOAA.NDBC:GBIF1:1,2016-02-04T10:00:00Z,25.3780,-81.0290,1.5,5.11,1111122 
ENP,ioos.station.NOAA.NDBC:GBIF1:1,2016-02-04T11:00:00Z,25.3780,-81.0290,1.5,3.48,1111122 
ENP,ioos.station.NOAA.NDBC:GBIF1:1,2016-02-04T12:00:00Z,25.3780,-81.0290,1.5,2.61,1111122 
ENP,ioos.station.NOAA.NDBC:GBIF1:1,2016-02-04T13:00:00Z,25.3780,-81.0290,1.5,2.44,1111122 
ENP,ioos.station.NOAA.NDBC:GBIF1:1,2016-02-04T14:00:00Z,25.3780,-81.0290,1.5,1.48,1111122 
ENP,ioos.station.NOAA.NDBC:GBIF1:1,2016-02-04T15:00:00Z,25.3780,-81.0290,1.5,1.16,1111122 
ENP,ioos.station.NOAA.NDBC:GBIF1:1,2016-02-04T16:00:00Z,25.3780,-81.0290,1.5,1.23,1111122 
ENP,ioos.station.NOAA.NDBC:GBIF1:1,2016-02-04T17:00:00Z,25.3780,-81.0290,1.5,2.52,1111122 
ENP,ioos.station.NOAA.NDBC:GBIF1:1,2016-02-04T18:00:00Z,25.3780,-81.0290,1.5,6.13,1111122 
ENP,ioos.station.NOAA.NDBC:GBIF1:1,2016-02-04T19:00:00Z,25.3780,-81.0290,1.5,9.4,1111122 
ENP,ioos.station.NOAA.NDBC:GBIF1:1,2016-02-04T20:00:00Z,25.3780,-81.0290,1.5,10.36,1111122 
ENP,ioos.station.NOAA.NDBC:GBIF1:1,2016-02-04T21:00:00Z,25.3780,-81.0290,1.5,6.8,1111122 
ENP,ioos.station.NOAA.NDBC:GBIF1:1,2016-02-04T22:00:00Z,25.3780,-81.0290,1.5,4.02,1111122 
ENP,ioos.station.NOAA.NDBC:GBIF1:1,2016-02-04T23:00:00Z,25.3780,-81.0290,1.5,2.78,1111122 
ENP,ioos.station.NOAA.NDBC:GBIF1:1,2016-02-05T00:00:00Z,25.3780,-81.0290,1.5,2.05,1111122 
ENP,ioos.station.NOAA.NDBC:GBIF1:1,2016-02-05T01:00:00Z,25.3780,-81.0290,1.5,1.46,1111122 
ENP,ioos.station.NOAA.NDBC:GBIF1:1,2016-02-05T02:00:00Z,25.3780,-81.0290,1.5,1.23,1111122 
ENP,ioos.station.NOAA.NDBC:GBIF1:1,2016-02-05T03:00:00Z,25.3780,-81.0290,1.5,2.82,1111122 
ENP,ioos.station.NOAA.NDBC:GBIF1:1,2016-02-05T04:00:00Z,25.3780,-81.0290,1.5,6.89,1111122 
ENP,ioos.station.NOAA.NDBC:GBIF1:1,2016-02-05T05:00:00Z,25.3780,-81.0290,1.5,11.0,1111122 
ENP,ioos.station.NOAA.NDBC:GBIF1:1,2016-02-05T06:00:00Z,25.3780,-81.0290,1.5,14.07,1111122 
ENP,ioos.station.NOAA.NDBC:GBIF1:1,2016-02-05T07:00:00Z,25.3780,-81.0290,1.5,15.6,1111122 
ENP,ioos.station.NOAA.NDBC:GBIF1:1,2016-02-05T08:00:00Z,25.3780,-81.0290,1.5,15.13,1111122 
ENP,ioos.station.NOAA.NDBC:GBIF1:1,2016-02-05T09:00:00Z,25.3780,-81.0290,1.5,10.68,1111122 
ENP,ioos.station.NOAA.NDBC:GBIF1:1,2016-02-05T11:00:00Z,25.3780,-81.0290,1.5,5.16,1111122 
ENP,ioos.station.NOAA.NDBC:GBIF1:1,2016-02-05T12:00:00Z,25.3780,-81.0290,1.5,3.51,1111122 
ENP,ioos.station.NOAA.NDBC:GBIF1:1,2016-02-05T13:00:00Z,25.3780,-81.0290,1.5,2.66,1111122 
ENP,ioos.station.NOAA.NDBC:GBIF1:1,2016-02-05T14:00:00Z,25.3780,-81.0290,1.5,2.44,1111122 
ENP,ioos.station.NOAA.NDBC:GBIF1:1,2016-02-05T15:00:00Z,25.3780,-81.0290,1.5,2.45,1111122 
ENP,ioos.station.NOAA.NDBC:GBIF1:1,2016-02-05T16:00:00Z,25.3780,-81.0290,1.5,2.24,1111122 
ENP,ioos.station.NOAA.NDBC:GBIF1:1,2016-02-05T17:00:00Z,25.3780,-81.0290,1.5,1.86,1111122 
ENP,ioos.station.NOAA.NDBC:GBIF1:1,2016-02-05T18:00:00Z,25.3780,-81.0290,1.5,1.41,1111122 
ENP,ioos.station.NOAA.NDBC:GBIF1:1,2016-02-05T19:00:00Z,25.3780,-81.0290,1.5,1.6,1111122 
ENP,ioos.station.NOAA.NDBC:GBIF1:1,2016-02-05T20:00:00Z,25.3780,-81.0290,1.5,1.76,1111122 
ENP,ioos.station.NOAA.NDBC:GBIF1:1,2016-02-05T21:00:00Z,25.3780,-81.0290,1.5,2.08,1111122 
ENP,ioos.station.NOAA.NDBC:GBIF1:1,2016-02-05T22:00:00Z,25.3780,-81.0290,1.5,2.14,1111122 
ENP,ioos.station.NOAA.NDBC:GBIF1:1,2016-02-06T00:00:00Z,25.3780,-81.0290,1.5,1.96,1111122 
ENP,ioos.station.NOAA.NDBC:GBIF1:1,2016-02-06T01:00:00Z,25.3780,-81.0290,1.5,1.39,1111122 
ENP,ioos.station.NOAA.NDBC:GBIF1:1,2016-02-06T02:00:00Z,25.3780,-81.0290,1.5,1.16,1111122 
ENP,ioos.station.NOAA.NDBC:GBIF1:1,2016-02-06T03:00:00Z,25.3780,-81.0290,1.5,1.04,1111122 
ENP,ioos.station.NOAA.NDBC:GBIF1:1,2016-02-06T04:00:00Z,25.3780,-81.0290,1.5,1.4,1111122 
ENP,ioos.station.NOAA.NDBC:GBIF1:1,2016-02-06T05:00:00Z,25.3780,-81.0290,1.5,2.09,1111122 
ENP,ioos.station.NOAA.NDBC:GBIF1:1,2016-02-06T06:00:00Z,25.3780,-81.0290,1.5,3.55,1111122 
ENP,ioos.station.NOAA.NDBC:GBIF1:1,2016-02-06T07:00:00Z,25.3780,-81.0290,1.5,4.4,1111122 
ENP,ioos.station.NOAA.NDBC:GBIF1:1,2016-02-06T08:00:00Z,25.3780,-81.0290,1.5,4.19,1111122 
ENP,ioos.station.NOAA.NDBC:GBIF1:1,2016-02-06T09:00:00Z,25.3780,-81.0290,1.5,2.99,1111122 
ENP,ioos.station.NOAA.NDBC:GBIF1:1,2016-02-06T10:00:00Z,25.3780,-81.0290,1.5,2.5,1111122 
ENP,ioos.station.NOAA.NDBC:GBIF1:1,2016-02-06T11:00:00Z,25.3780,-81.0290,1.5,2.32,1111122 
ENP,ioos.station.NOAA.NDBC:GBIF1:1,2016-02-06T12:00:00Z,25.3780,-81.0290,1.5,2.09,1111122 
ENP,ioos.station.NOAA.NDBC:GBIF1:1,2016-02-06T13:00:00Z,25.3780,-81.0290,1.5,2.04,1111122 
ENP,ioos.station.NOAA.NDBC:GBIF1:1,2016-02-06T14:00:00Z,25.3780,-81.0290,1.5,1.9,1111122 
ENP,ioos.station.NOAA.NDBC:GBIF1:1,2016-02-06T15:00:00Z,25.3780,-81.0290,1.5,1.64,1111122 
ENP,ioos.station.NOAA.NDBC:GBIF1:1,2016-02-06T16:00:00Z,25.3780,-81.0290,1.5,1.36,1111122 
ENP,ioos.station.NOAA.NDBC:GBIF1:1,2016-02-06T17:00:00Z,25.3780,-81.0290,1.5,1.45,1111122 
ENP,ioos.station.NOAA.NDBC:GBIF1:1,2016-02-06T18:00:00Z,25.3780,-81.0290,1.5,1.84,1111122 
ENP,ioos.station.NOAA.NDBC:GBIF1:1,2016-02-06T19:00:00Z,25.3780,-81.0290,1.5,3.51,1111122 
ENP,ioos.station.NOAA.NDBC:GBIF1:1,2016-02-06T20:00:00Z,25.3780,-81.0290,1.5,5.84,1111122 
ENP,ioos.station.NOAA.NDBC:GBIF1:1,2016-02-06T21:00:00Z,25.3780,-81.0290,1.5,7.39,1111122 
ENP,ioos.station.NOAA.NDBC:GBIF1:1,2016-02-06T22:00:00Z,25.3780,-81.0290,1.5,6.34,1111122 
ENP,ioos.station.NOAA.NDBC:GBIF1:1,2016-02-06T23:00:00Z,25.3780,-81.0290,1.5,4.48,1111122 
ENP,ioos.station.NOAA.NDBC:GBIF1:1,2016-02-07T00:00:00Z,25.3780,-81.0290,1.5,3.27,1111122 
ENP,ioos.station.NOAA.NDBC:GBIF1:1,2016-02-07T01:00:00Z,25.3780,-81.0290,1.5,2.75,1111122 
ENP,ioos.station.NOAA.NDBC:GBIF1:1,2016-02-07T02:00:00Z,25.3780,-81.0290,1.5,2.4,1111122 
ENP,ioos.station.NOAA.NDBC:GBIF1:1,2016-02-07T03:00:00Z,25.3780,-81.0290,1.5,2.06,1111122 
ENP,ioos.station.NOAA.NDBC:GBIF1:1,2016-02-07T04:00:00Z,25.3780,-81.0290,1.5,2.07,1111122 
ENP,ioos.station.NOAA.NDBC:GBIF1:1,2016-02-07T05:00:00Z,25.3780,-81.0290,1.5,3.82,1111122 
ENP,ioos.station.NOAA.NDBC:GBIF1:1,2016-02-07T06:00:00Z,25.3780,-81.0290,1.5,6.32,1111122 
ENP,ioos.station.NOAA.NDBC:GBIF1:1,2016-02-07T07:00:00Z,25.3780,-81.0290,1.5,8.64,1111122 
ENP,ioos.station.NOAA.NDBC:GBIF1:1,2016-02-07T08:00:00Z,25.3780,-81.0290,1.5,11.45,1111122 
ENP,ioos.station.NOAA.NDBC:GBIF1:1,2016-02-07T09:00:00Z,25.3780,-81.0290,1.5,11.97,1111122 
ENP,ioos.station.NOAA.NDBC:GBIF1:1,2016-02-07T10:00:00Z,25.3780,-81.0290,1.5,9.21,1111122 
ENP,ioos.station.NOAA.NDBC:GBIF1:1,2016-02-07T12:00:00Z,25.3780,-81.0290,1.5,6.31,1111122 
ENP,ioos.station.NOAA.NDBC:GBIF1:1,2016-02-07T13:00:00Z,25.3780,-81.0290,1.5,4.67,1111122 
ENP,ioos.station.NOAA.NDBC:GBIF1:1,2016-02-07T14:00:00Z,25.3780,-81.0290,1.5,3.63,1111122 
ENP,ioos.station.NOAA.NDBC:GBIF1:1,2016-02-07T15:00:00Z,25.3780,-81.0290,1.5,3.12,1111122 
ENP,ioos.station.NOAA.NDBC:GBIF1:1,2016-02-07T16:00:00Z,25.3780,-81.0290,1.5,2.47,1111122 
ENP,ioos.station.NOAA.NDBC:GBIF1:1,2016-02-07T17:00:00Z,25.3780,-81.0290,1.5,1.77,1111122 
ENP,ioos.station.NOAA.NDBC:GBIF1:1,2016-02-07T18:00:00Z,25.3780,-81.0290,1.5,1.66,1111122 
ENP,ioos.station.NOAA.NDBC:GBIF1:1,2016-02-07T19:00:00Z,25.3780,-81.0290,1.5,2.43,1111122 
ENP,ioos.station.NOAA.NDBC:GBIF1:1,2016-02-07T20:00:00Z,25.3780,-81.0290,1.5,5.03,1111122 
ENP,ioos.station.NOAA.NDBC:GBIF1:1,2016-02-07T21:00:00Z,25.3780,-81.0290,1.5,8.58,1111122 
ENP,ioos.station.NOAA.NDBC:GBIF1:1,2016-02-07T22:00:00Z,25.3780,-81.0290,1.5,9.97,1111122 
ENP,ioos.station.NOAA.NDBC:GBIF1:1,2016-02-07T23:00:00Z,25.3780,-81.0290,1.5,7.61,1111122 
ENP,ioos.station.NOAA.NDBC:GBIF1:1,2016-02-08T00:00:00Z,25.3780,-81.0290,1.5,4.95,1111122 
ENP,ioos.station.NOAA.NDBC:GBIF1:1,2016-02-08T01:00:00Z,25.3780,-81.0290,1.5,3.79,1111122 
ENP,ioos.station.NOAA.NDBC:GBIF1:1,2016-02-08T02:00:00Z,25.3780,-81.0290,1.5,2.98,1111122 
ENP,ioos.station.NOAA.NDBC:GBIF1:1,2016-02-08T03:00:00Z,25.3780,-81.0290,1.5,2.17,1111122 
ENP,ioos.station.NOAA.NDBC:GBIF1:1,2016-02-08T04:00:00Z,25.3780,-81.0290,1.5,1.91,1111122 
ENP,ioos.station.NOAA.NDBC:GBIF1:1,2016-02-08T05:00:00Z,25.3780,-81.0290,1.5,3.34,1111122 
ENP,ioos.station.NOAA.NDBC:GBIF1:1,2016-02-08T06:00:00Z,25.3780,-81.0290,1.5,7.32,1111122 
ENP,ioos.station.NOAA.NDBC:GBIF1:1,2016-02-08T07:00:00Z,25.3780,-81.0290,1.5,12.3,1111122 
ENP,ioos.station.NOAA.NDBC:GBIF1:1,2016-02-08T08:00:00Z,25.3780,-81.0290,1.5,14.8,1111122 
ENP,ioos.station.NOAA.NDBC:GBIF1:1,2016-02-08T09:00:00Z,25.3780,-81.0290,1.5,17.14,1111122 
ENP,ioos.station.NOAA.NDBC:GBIF1:1,2016-02-08T10:00:00Z,25.3780,-81.0290,1.5,17.21,1111122 
ENP,ioos.station.NOAA.NDBC:GBIF1:1,2016-02-08T11:00:00Z,25.3780,-81.0290,1.5,15.13,1111122 
ENP,ioos.station.NOAA.NDBC:GBIF1:1,2016-02-08T12:00:00Z,25.3780,-81.0290,1.5,9.53,1111122 
ENP,ioos.station.NOAA.NDBC:GBIF1:1,2016-02-08T13:00:00Z,25.3780,-81.0290,1.5,8.05,1111122 
ENP,ioos.station.NOAA.NDBC:GBIF1:1,2016-02-08T14:00:00Z,25.3780,-81.0290,1.5,6.58,1111122 
ENP,ioos.station.NOAA.NDBC:GBIF1:1,2016-02-08T15:00:00Z,25.3780,-81.0290,1.5,5.31,1111122 
ENP,ioos.station.NOAA.NDBC:GBIF1:1,2016-02-08T16:00:00Z,25.3780,-81.0290,1.5,4.41,1111122 
ENP,ioos.station.NOAA.NDBC:GBIF1:1,2016-02-08T17:00:00Z,25.3780,-81.0290,1.5,2.53,1111122 
ENP,ioos.station.NOAA.NDBC:GBIF1:1,2016-02-08T18:00:00Z,25.3780,-81.0290,1.5,2.33,1111122 
ENP,ioos.station.NOAA.NDBC:GBIF1:1,2016-02-08T19:00:00Z,25.3780,-81.0290,1.5,4.81,1111122 
ENP,ioos.station.NOAA.NDBC:GBIF1:1,2016-02-08T20:00:00Z,25.3780,-81.0290,1.5,8.7,1111122 
ENP,ioos.station.NOAA.NDBC:GBIF1:1,2016-02-08T21:00:00Z,25.3780,-81.0290,1.5,12.56,1111122 
ENP,ioos.station.NOAA.NDBC:GBIF1:1,2016-02-08T22:00:00Z,25.3780,-81.0290,1.5,14.33,1111122 
ENP,ioos.station.NOAA.NDBC:GBIF1:1,2016-02-08T23:00:00Z,25.3780,-81.0290,1.5,13.47,1111122 
ENP,ioos.station.NOAA.NDBC:GBIF1:1,2016-02-09T00:00:00Z,25.3780,-81.0290,1.5,12.3,1111122 
ENP,ioos.station.NOAA.NDBC:GBIF1:1,2016-02-09T01:00:00Z,25.3780,-81.0290,1.5,7.75,1111122 
ENP,ioos.station.NOAA.NDBC:GBIF1:1,2016-02-09T02:00:00Z,25.3780,-81.0290,1.5,5.9,1111122 
ENP,ioos.station.NOAA.NDBC:GBIF1:1,2016-02-09T03:00:00Z,25.3780,-81.0290,1.5,4.5,1111122 
ENP,ioos.station.NOAA.NDBC:GBIF1:1,2016-02-09T04:00:00Z,25.3780,-81.0290,1.5,2.72,1111122 
ENP,ioos.station.NOAA.NDBC:GBIF1:1,2016-02-09T05:00:00Z,25.3780,-81.0290,1.5,2.87,1111122 
ENP,ioos.station.NOAA.NDBC:GBIF1:1,2016-02-09T06:00:00Z,25.3780,-81.0290,1.5,5.72,1111122 
ENP,ioos.station.NOAA.NDBC:GBIF1:1,2016-02-09T07:00:00Z,25.3780,-81.0290,1.5,10.29,1111122 
ENP,ioos.station.NOAA.NDBC:GBIF1:1,2016-02-09T08:00:00Z,25.3780,-81.0290,1.5,14.86,1111122 
ENP,ioos.station.NOAA.NDBC:GBIF1:1,2016-02-09T09:00:00Z,25.3780,-81.0290,1.5,17.54,1111122 
ENP,ioos.station.NOAA.NDBC:GBIF1:1,2016-02-09T10:00:00Z,25.3780,-81.0290,1.5,18.97,1111122 
ENP,ioos.station.NOAA.NDBC:GBIF1:1,2016-02-09T11:00:00Z,25.3780,-81.0290,1.5,19.79,1111122 
ENP,ioos.station.NOAA.NDBC:GBIF1:1,2016-02-09T12:00:00Z,25.3780,-81.0290,1.5,19.65,1111122 
ENP,ioos.station.NOAA.NDBC:GBIF1:1,2016-02-09T13:00:00Z,25.3780,-81.0290,1.5,15.06,1111122 
ENP,ioos.station.NOAA.NDBC:GBIF1:1,2016-02-09T14:00:00Z,25.3780,-81.0290,1.5,12.95,1111122 
ENP,ioos.station.NOAA.NDBC:GBIF1:1,2016-02-09T15:00:00Z,25.3780,-81.0290,1.5,11.39,1111122 
ENP,ioos.station.NOAA.NDBC:GBIF1:1,2016-02-09T16:00:00Z,25.3780,-81.0290,1.5,9.97,1111122 
ENP,ioos.station.NOAA.NDBC:GBIF1:1,2016-02-09T17:00:00Z,25.3780,-81.0290,1.5,9.97,1111122 
ENP,ioos.station.NOAA.NDBC:GBIF1:1,2016-02-09T18:00:00Z,25.3780,-81.0290,1.5,9.91,1111122 
ENP,ioos.station.NOAA.NDBC:GBIF1:1,2016-02-09T19:00:00Z,25.3780,-81.0290,1.5,10.29,1111122 
ENP,ioos.station.NOAA.NDBC:GBIF1:1,2016-02-09T20:00:00Z,25.3780,-81.0290,1.5,12.75,1111122 
ENP,ioos.station.NOAA.NDBC:GBIF1:1,2016-02-09T21:00:00Z,25.3780,-81.0290,1.5,14.53,1111122 
ENP,ioos.station.NOAA.NDBC:GBIF1:1,2016-02-09T22:00:00Z,25.3780,-81.0290,1.5,16.0,1111122 
ENP,ioos.station.NOAA.NDBC:GBIF1:1,2016-02-09T23:00:00Z,25.3780,-81.0290,1.5,17.54,1111122 
ENP,ioos.station.NOAA.NDBC:GBIF1:1,2016-02-10T00:00:00Z,25.3780,-81.0290,1.5,17.81,1111122 
ENP,ioos.station.NOAA.NDBC:GBIF1:1,2016-02-10T01:00:00Z,25.3780,-81.0290,1.5,15.4,1111122 
ENP,ioos.station.NOAA.NDBC:GBIF1:1,2016-02-10T02:00:00Z,25.3780,-81.0290,1.5,13.67,1111122 
ENP,ioos.station.NOAA.NDBC:GBIF1:1,2016-02-10T04:00:00Z,25.3780,-81.0290,1.5,11.71,1111122 
ENP,ioos.station.NOAA.NDBC:GBIF1:1,2016-02-10T05:00:00Z,25.3780,-81.0290,1.5,10.74,1111122 
ENP,ioos.station.NOAA.NDBC:GBIF1:1,2016-02-10T06:00:00Z,25.3780,-81.0290,1.5,10.68,1111122 
ENP,ioos.station.NOAA.NDBC:GBIF1:1,2016-02-10T07:00:00Z,25.3780,-81.0290,1.5,11.91,1111122 
ENP,ioos.station.NOAA.NDBC:GBIF1:1,2016-02-10T08:00:00Z,25.3780,-81.0290,1.5,14.07,1111122 
ENP,ioos.station.NOAA.NDBC:GBIF1:1,2016-02-10T09:00:00Z,25.3780,-81.0290,1.5,17.34,1111122 
ENP,ioos.station.NOAA.NDBC:GBIF1:1,2016-02-10T10:00:00Z,25.3780,-81.0290,1.5,19.24,1111122 
ENP,ioos.station.NOAA.NDBC:GBIF1:1,2016-02-10T11:00:00Z,25.3780,-81.0290,1.5,19.93,1111122 
ENP,ioos.station.NOAA.NDBC:GBIF1:1,2016-02-10T12:00:00Z,25.3780,-81.0290,1.5,18.7,1111122 
ENP,ioos.station.NOAA.NDBC:GBIF1:1,2016-02-10T13:00:00Z,25.3780,-81.0290,1.5,17.07,1111122 
ENP,ioos.station.NOAA.NDBC:GBIF1:1,2016-02-10T14:00:00Z,25.3780,-81.0290,1.5,15.46,1111122 
ENP,ioos.station.NOAA.NDBC:GBIF1:1,2016-02-10T15:00:00Z,25.3780,-81.0290,1.5,14.2,1111122 
ENP,ioos.station.NOAA.NDBC:GBIF1:1,2016-02-10T16:00:00Z,25.3780,-81.0290,1.5,13.02,1111122 
ENP,ioos.station.NOAA.NDBC:GBIF1:1,2016-02-10T17:00:00Z,25.3780,-81.0290,1.5,11.52,1111122 
ENP,ioos.station.NOAA.NDBC:GBIF1:1,2016-02-10T18:00:00Z,25.3780,-81.0290,1.5,10.1,1111122 
ENP,ioos.station.NOAA.NDBC:GBIF1:1,2016-02-10T19:00:00Z,25.3780,-81.0290,1.5,7.52,1111122 
ENP,ioos.station.NOAA.NDBC:GBIF1:1,2016-02-10T20:00:00Z,25.3780,-81.0290,1.5,7.85,1111122 
ENP,ioos.station.NOAA.NDBC:GBIF1:1,2016-02-10T21:00:00Z,25.3780,-81.0290,1.5,10.61,1111122 
ENP,ioos.station.NOAA.NDBC:GBIF1:1,2016-02-11T00:00:00Z,25.3780,-81.0290,1.5,13.74,1111122 
ENP,ioos.station.NOAA.NDBC:GBIF1:1,2016-02-11T01:00:00Z,25.3780,-81.0290,1.5,12.04,1111122 
ENP,ioos.station.NOAA.NDBC:GBIF1:1,2016-02-11T02:00:00Z,25.3780,-81.0290,1.5,10.04,1111122 
ENP,ioos.station.NOAA.NDBC:GBIF1:1,2016-02-11T03:00:00Z,25.3780,-81.0290,1.5,8.58,1111122 
ENP,ioos.station.NOAA.NDBC:GBIF1:1,2016-02-11T04:00:00Z,25.3780,-81.0290,1.5,7.9,1111122 
ENP,ioos.station.NOAA.NDBC:GBIF1:1,2016-02-11T05:00:00Z,25.3780,-81.0290,1.5,7.47,1111122 
ENP,ioos.station.NOAA.NDBC:GBIF1:1,2016-02-11T06:00:00Z,25.3780,-81.0290,1.5,5.57,1111122 
ENP,ioos.station.NOAA.NDBC:GBIF1:1,2016-02-11T07:00:00Z,25.3780,-81.0290,1.5,3.12,1111122 
ENP,ioos.station.NOAA.NDBC:GBIF1:1,2016-02-11T08:00:00Z,25.3780,-81.0290,1.5,3.12,1111122 
ENP,ioos.station.NOAA.NDBC:GBIF1:1,2016-02-11T09:00:00Z,25.3780,-81.0290,1.5,4.57,1111122 
ENP,ioos.station.NOAA.NDBC:GBIF1:1,2016-02-11T10:00:00Z,25.3780,-81.0290,1.5,7.44,1111122 
ENP,ioos.station.NOAA.NDBC:GBIF1:1,2016-02-11T11:00:00Z,25.3780,-81.0290,1.5,10.55,1111122 
ENP,ioos.station.NOAA.NDBC:GBIF1:1,2016-02-11T12:00:00Z,25.3780,-81.0290,1.5,9.21,1111122 
ENP,ioos.station.NOAA.NDBC:GBIF1:1,2016-02-11T13:00:00Z,25.3780,-81.0290,1.5,7.42,1111122 
ENP,ioos.station.NOAA.NDBC:GBIF1:1,2016-02-11T14:00:00Z,25.3780,-81.0290,1.5,5.88,1111122 
ENP,ioos.station.NOAA.NDBC:GBIF1:1,2016-02-11T15:00:00Z,25.3780,-81.0290,1.5,4.91,1111122 
ENP,ioos.station.NOAA.NDBC:GBIF1:1,2016-02-11T16:00:00Z,25.3780,-81.0290,1.5,5.0,1111122 
ENP,ioos.station.NOAA.NDBC:GBIF1:1,2016-02-11T17:00:00Z,25.3780,-81.0290,1.5,5.43,1111122 
ENP,ioos.station.NOAA.NDBC:GBIF1:1,2016-02-11T18:00:00Z,25.3780,-81.0290,1.5,1.89,1111122 
ENP,ioos.station.NOAA.NDBC:GBIF1:1,2016-02-11T19:00:00Z,25.3780,-81.0290,1.5,1.57,1111122 
ENP,ioos.station.NOAA.NDBC:GBIF1:1,2016-02-11T21:00:00Z,25.3780,-81.0290,1.5,1.91,1111122 
ENP,ioos.station.NOAA.NDBC:GBIF1:1,2016-02-11T22:00:00Z,25.3780,-81.0290,1.5,3.44,1111122 
ENP,ioos.station.NOAA.NDBC:GBIF1:1,2016-02-11T23:00:00Z,25.3780,-81.0290,1.5,6.16,1111122 
ENP,ioos.station.NOAA.NDBC:GBIF1:1,2016-02-12T00:00:00Z,25.3780,-81.0290,1.5,6.91,1111122 
ENP,ioos.station.NOAA.NDBC:GBIF1:1,2016-02-12T01:00:00Z,25.3780,-81.0290,1.5,5.19,1111122 
ENP,ioos.station.NOAA.NDBC:GBIF1:1,2016-02-12T02:00:00Z,25.3780,-81.0290,1.5,4.34,1111122 
ENP,ioos.station.NOAA.NDBC:GBIF1:1,2016-02-12T03:00:00Z,25.3780,-81.0290,1.5,3.67,1111122 
ENP,ioos.station.NOAA.NDBC:GBIF1:1,2016-02-12T04:00:00Z,25.3780,-81.0290,1.5,3.39,1111122 
ENP,ioos.station.NOAA.NDBC:GBIF1:1,2016-02-12T05:00:00Z,25.3780,-81.0290,1.5,3.63,1111122 
ENP,ioos.station.NOAA.NDBC:GBIF1:1,2016-02-12T07:00:00Z,25.3780,-81.0290,1.5,1.51,1111122 
ENP,ioos.station.NOAA.NDBC:GBIF1:1,2016-02-12T08:00:00Z,25.3780,-81.0290,1.5,1.38,1111122 
ENP,ioos.station.NOAA.NDBC:GBIF1:1,2016-02-12T09:00:00Z,25.3780,-81.0290,1.5,1.73,1111122 
ENP,ioos.station.NOAA.NDBC:GBIF1:1,2016-02-12T10:00:00Z,25.3780,-81.0290,1.5,2.99,1111122 
ENP,ioos.station.NOAA.NDBC:GBIF1:1,2016-02-12T11:00:00Z,25.3780,-81.0290,1.5,6.59,1111122 
ENP,ioos.station.NOAA.NDBC:GBIF1:1,2016-02-12T12:00:00Z,25.3780,-81.0290,1.5,8.89,1111122 
ENP,ioos.station.NOAA.NDBC:GBIF1:1,2016-02-12T13:00:00Z,25.3780,-81.0290,1.5,7.41,1111122 
ENP,ioos.station.NOAA.NDBC:GBIF1:1,2016-02-12T14:00:00Z,25.3780,-81.0290,1.5,5.17,1111122 
ENP,ioos.station.NOAA.NDBC:GBIF1:1,2016-02-12T15:00:00Z,25.3780,-81.0290,1.5,3.77,1111122 
ENP,ioos.station.NOAA.NDBC:GBIF1:1,2016-02-12T17:00:00Z,25.3780,-81.0290,1.5,3.15,1111122 
ENP,ioos.station.NOAA.NDBC:GBIF1:1,2016-02-12T18:00:00Z,25.3780,-81.0290,1.5,3.05,1111122 
ENP,ioos.station.NOAA.NDBC:GBIF1:1,2016-02-12T19:00:00Z,25.3780,-81.0290,1.5,1.88,1111122 
ENP,ioos.station.NOAA.NDBC:GBIF1:1,2016-02-12T20:00:00Z,25.3780,-81.0290,1.5,1.39,1111122 
ENP,ioos.station.NOAA.NDBC:GBIF1:1,2016-02-12T21:00:00Z,25.3780,-81.0290,1.5,1.48,1111122 
ENP,ioos.station.NOAA.NDBC:GBIF1:1,2016-02-12T22:00:00Z,25.3780,-81.0290,1.5,2.13,1111122 
ENP,ioos.station.NOAA.NDBC:GBIF1:1,2016-02-12T23:00:00Z,25.3780,-81.0290,1.5,5.11,1111122 